User: anonymous   Login
Location: Unspecified
(0.0000°N, 0.0000°E)
Time: 23:59:26
(UTC+00:00)
Language:

CP3 - Orbit

View from above orbital plane
View from above orbital plane
View from above satellite
View from above satellite

Ground track
Ground track

The orbit data is extracted from the following two-line orbital elements,

1 31129U 07012N   24176.42267054  .00001544  00000-0  30759-3 0  9997
2 31129  98.3609 130.2388 0089420 155.1552 205.3993 14.61001666912986
Epoch (UTC): 24 June 2024 10:08:38
Eccentricity: 0.0089420
inclination: 98.3609°
perigee height: 627 km
apogee height: 753 km
right ascension of ascending node: 130.2388°
argument of perigee: 155.1552°
revolutions per day: 14.61001666
mean anomaly at epoch: 205.3993°
orbit number at epoch: 91298

The dashed part of the orbit path shows where the satellite is in the earth's shadow,  

DLR